Location: Praha
(50.0830°N, 14.4670°E)
Time: 02:45:21
(UTC+01:00)

ISS - Pass Details

Date: 03 November 2025
Orbit: 414 x 420 km, 51.6° (Epoch: 18 November)

Event Time Altitude Azimuth Distance (km) Brightness Sun altitude
Exits shadow 04:41:19 18° 168° (SSE) 1,117 -1.5 -21.8°
Drops below altitude 10° 04:42:29 10° 154° (SSE) 1,495 -0.7 -21.6°
Sets 04:44:45 0° 142° (SE) 2,357 0.6 -21.3°
